This is the latest recevied weather packets stored in our database for station/object PD2BVG. If no packets are shown the sender has not sent any weather packets the latest 10 day(s).
| Time | Temp. | Humidity | Pressure | Rain* | Wind** | Luminosity | Snow |
|---|---|---|---|---|---|---|---|
| 1777541092 | 15.56° C | 38% | 1026.4 hPa | 0 mm | - | 667 W/m² | - |
| 1777541033 | 15.56° C | 38% | 1026.4 hPa | 0 mm | - | 674 W/m² | - |
| 1777540972 | 15.56° C | 38% | 1026.4 hPa | 0 mm | - | 686 W/m² | - |
| 1777540913 | 15.56° C | 39% | 1026.4 hPa | 0 mm | - | 686 W/m² | - |
| 1777540852 | 15.56° C | 39% | 1026.5 hPa | 0 mm | - | 689 W/m² | - |
| 1777540793 | 15.56° C | 38% | 1026.6 hPa | 0 mm | - | 689 W/m² | - |
| 1777540732 | 15.56° C | 38% | 1026.6 hPa | 0 mm | - | 689 W/m² | - |
| 1777540675 | 15.56° C | 39% | 1026.5 hPa | 0 mm | - | 689 W/m² | - |
| 1777540612 | 15.56° C | 39% | 1026.6 hPa | 0 mm | - | 689 W/m² | - |
| 1777540552 | 15.56° C | 39% | 1026.6 hPa | 0 mm | - | 684 W/m² | - |
| 1777540492 | 15.56° C | 39% | 1026.7 hPa | 0 mm | - | 684 W/m² | - |
| 1777540433 | 15.56° C | 40% | 1026.6 hPa | 0 mm | - | 684 W/m² | - |
| 1777540373 | 15.56° C | 40% | 1026.6 hPa | 0 mm | - | 681 W/m² | - |
| 1777540313 | 15.56° C | 41% | 1026.7 hPa | 0 mm | - | 681 W/m² | - |
| 1777540252 | 15.56° C | 41% | 1026.7 hPa | 0 mm | - | 677 W/m² | - |
| 1777540192 | 15.56° C | 42% | 1026.5 hPa | 0 mm | - | 675 W/m² | - |
| 1777540132 | 15.56° C | 41% | 1026.6 hPa | 0 mm | - | 675 W/m² | - |
| 1777540072 | 15.56° C | 41% | 1026.6 hPa | 0 mm | - | 674 W/m² | - |
| 1777540012 | 15.56° C | 42% | 1026.6 hPa | 0 mm | - | 670 W/m² | - |
| 1777539952 | 15.56° C | 42% | 1026.7 hPa | 0 mm | - | 670 W/m² | - |
| 1777539892 | 15.56° C | 42% | 1026.7 hPa | 0 mm | - | 670 W/m² | - |
| 1777539833 | 15° C | 42% | 1026.6 hPa | 0 mm | - | 667 W/m² | - |
| 1777539773 | 15° C | 42% | 1026.7 hPa | 0 mm | - | 661 W/m² | - |
| 1777539715 | 15° C | 40% | 1026.7 hPa | 0 mm | - | 661 W/m² | - |
| 1777539653 | 15° C | 39% | 1026.7 hPa | 0 mm | - | 659 W/m² | - |
* Rain latest hour (hover to see other rain measurements)
** Current wind speed in m/s (hover to see current wind gust speed)